Total_Precipitation_Accumulation
0.16 0.21 0.23 0.25 0.27 0.31 0.34 0.38 0.47 0.63 0.72 0.76 0.82 0.85 0.72 0.76 0.82 0.79 0.71 0.65 0.61 0.60 0.60 0.60 0.61 0.63 0.62 0.60 0.59 0.56 0.53 0.48 0.49 0.54 0.49 0.44 0.44 0.46 0.45 0.45 0.47 0.50 0.50
0.17 0.22 0.26 0.27 0.26 0.29 0.31 0.35 0.40 0.53 0.63 0.65 0.74 0.86 0.83 0.79 0.88 0.86 0.80 0.77 0.64 0.58 0.57 0.54 0.55 0.58 0.60 0.58 0.56 0.56 0.56 0.51 0.47 0.53 0.55 0.47 0.41 0.36 0.33 0.34 0.38 0.44 0.51
0.14 0.20 0.25 0.27 0.28 0.28 0.29 0.32 0.36 0.45 0.59 0.72 0.82 0.94 1.09 1.00 0.95 0.93 0.85 0.88 0.78 0.62 0.58 0.54 0.54 0.53 0.56 0.56 0.51 0.51 0.55 0.56 0.52 0.52 0.68 0.73 0.53 0.36 0.28 0.29 0.32 0.36 0.38
0.13 0.16 0.22 0.24 0.26 0.27 0.30 0.33 0.39 0.42 0.50 0.68 0.81 0.81 0.88 0.91 0.77 0.74 0.79 0.86 0.93 0.76 0.59 0.54 0.54 0.53 0.54 0.54 0.55 0.53 0.53 0.56 0.56 0.55 0.55 0.59 0.59 0.65 0.46 0.23 0.21 0.25 0.29
0.11 0.12 0.17 0.21 0.26 0.29 0.30 0.34 0.44 0.47 0.47 0.57 0.69 0.77 0.80 0.82 0.84 0.77 0.75 0.82 0.89 0.90 0.75 0.59 0.56 0.55 0.54 0.52 0.54 0.55 0.57 0.58 0.58 0.60 0.58 0.54 0.49 0.55 0.71 0.44 0.22 0.21 0.22
0.11 0.12 0.16 0.22 0.28 0.32 0.35 0.37 0.43 0.48 0.49 0.54 0.64 0.70 0.73 0.78 0.87 0.85 0.75 0.75 0.84 0.90 0.87 0.74 0.62 0.58 0.54 0.51 0.51 0.53 0.55 0.58 0.59 0.60 0.61 0.64 0.65 0.58 0.67 0.64 0.38 0.28 0.22
0.13 0.13 0.15 0.21 0.26 0.30 0.32 0.36 0.41 0.48 0.52 0.55 0.58 0.61 0.68 0.74 0.77 0.83 0.81 0.78 0.78 0.84 0.89 0.84 0.72 0.64 0.62 0.59 0.57 0.59 0.58 0.59 0.61 0.62 0.63 0.66 0.67 0.65 0.72 0.79 0.62 0.44 0.30
0.14 0.15 0.13 0.15 0.20 0.26 0.29 0.33 0.36 0.41 0.51 0.57 0.56 0.59 0.65 0.73 0.73 0.75 0.82 0.82 0.77 0.78 0.89 0.92 0.85 0.75 0.72 0.74 0.74 0.73 0.71 0.71 0.70 0.68 0.68 0.73 0.70 0.72 0.79 0.87 0.93 0.79 0.46
0.14 0.15 0.14 0.15 0.18 0.21 0.25 0.31 0.35 0.39 0.43 0.52 0.63 0.62 0.63 0.68 0.70 0.69 0.72 0.77 0.76 0.74 0.79 0.88 0.94 0.95 0.91 0.88 0.91 0.91 0.86 0.86 0.84 0.82 0.79 0.80 0.75 0.73 0.75 0.82 0.99 1.22 1.01
0.16 0.16 0.16 0.16 0.19 0.22 0.23 0.30 0.38 0.42 0.45 0.46 0.56 0.65 0.64 0.66 0.71 0.71 0.68 0.72 0.77 0.79 0.77 0.80 0.85 0.91 0.95 0.94 0.92 0.91 0.92 0.96 0.96 0.97 0.95 0.91 0.87 0.88 0.87 0.89 0.94 1.11 1.30
0.24 0.23 0.19 0.17 0.19 0.25 0.27 0.27 0.37 0.44 0.50 0.50 0.52 0.60 0.68 0.68 0.73 0.79 0.79 0.77 0.83 0.88 0.85 0.82 0.79 0.75 0.81 0.92 0.99 0.99 0.99 1.01 0.99 0.99 1.01 1.00 1.00 1.04 1.04 1.06 1.06 1.09 1.27
0.26 0.24 0.20 0.20 0.23 0.29 0.31 0.31 0.38 0.43 0.52 0.57 0.58 0.61 0.69 0.73 0.74 0.78 0.85 0.87 0.90 0.95 0.94 0.92 0.86 0.75 0.72 0.81 0.90 0.95 0.97 1.02 1.01 1.01 1.06 1.06 1.07 1.10 1.11 1.16 1.16 1.14 1.18
0.22 0.21 0.21 0.23 0.28 0.31 0.33 0.37 0.44 0.46 0.49 0.55 0.65 0.67 0.70 0.76 0.85 0.87 0.87 0.88 0.91 0.99 1.02 1.00 0.96 0.90 0.86 0.89 0.91 0.93 0.95 0.95 0.94 0.94 1.00 1.06 1.13 1.17 1.15 1.15 1.16 1.12 1.06
0.21 0.22 0.23 0.24 0.29 0.33 0.36 0.43 0.47 0.49 0.56 0.58 0.60 0.71 0.79 0.80 0.87 0.92 0.93 0.94 0.96 0.99 1.04 1.03 1.03 1.02 1.05 1.16 1.16 1.05 1.03 0.97 0.93 0.91 0.96 1.03 1.15 1.23 1.31 1.38 1.30 1.21 1.25
0.24 0.27 0.28 0.28 0.31 0.35 0.40 0.49 0.56 0.58 0.68 0.76 0.75 0.73 0.78 0.82 0.81 0.87 0.90 0.94 1.00 1.02 0.99 0.95 0.97 1.02 1.14 1.43 1.45 1.25 1.13 1.06 1.00 0.94 0.93 0.96 1.14 1.37 1.59 1.72 1.66 1.61 1.67
0.29 0.31 0.33 0.34 0.36 0.42 0.53 0.63 0.72 0.75 0.79 0.88 0.90 0.81 0.75 0.76 0.80 0.83 0.87 0.89 0.93 0.96 0.95 0.90 0.89 0.98 1.14 1.55 1.60 1.39 1.15 1.09 1.07 1.04 0.97 0.94 1.02 1.13 1.33 1.56 1.63 1.72 1.86
0.30 0.33 0.37 0.41 0.43 0.51 0.66 0.77 0.79 0.81 0.86 0.89 0.95 0.93 0.81 0.75 0.77 0.78 0.78 0.80 0.82 0.85 0.85 0.85 0.84 0.86 1.04 1.47 1.51 1.33 1.07 0.99 0.98 0.95 0.90 0.89 0.87 0.95 0.90 1.05 1.16 1.24 1.44
0.34 0.39 0.45 0.45 0.48 0.57 0.69 0.78 0.82 0.86 0.92 0.94 0.93 0.91 0.81 0.72 0.72 0.75 0.73 0.69 0.69 0.75 0.78 0.80 0.79 0.75 0.82 1.22 1.44 1.29 0.95 0.89 0.91 0.90 0.90 0.89 0.86 0.85 0.93 1.01 1.04 0.97 0.99
0.35 0.39 0.43 0.44 0.48 0.54 0.63 0.69 0.73 0.77 0.82 0.88 0.86 0.83 0.77 0.71 0.73 0.76 0.72 0.66 0.65 0.68 0.70 0.72 0.76 0.74 0.74 1.01 1.38 1.40 1.02 0.97 0.91 0.91 1.03 1.07 0.96 1.00 1.20 1.30 1.26 1.05 0.90
0.29 0.32 0.36 0.35 0.39 0.46 0.51 0.55 0.60 0.63 0.67 0.72 0.77 0.81 0.75 0.71 0.74 0.75 0.72 0.68 0.67 0.71 0.73 0.73 0.78 0.78 0.73 0.92 1.31 1.56 1.16 1.05 0.94 0.94 1.06 1.34 1.30 1.28 1.35 1.39 1.41 1.35 1.03
0.28 0.29 0.32 0.35 0.40 0.48 0.52 0.53 0.54 0.57 0.58 0.59 0.63 0.73 0.76 0.72 0.72 0.72 0.72 0.72 0.72 0.73 0.77 0.77 0.79 0.80 0.76 0.81 1.09 1.54 1.42 1.20 1.09 1.06 1.11 1.24 1.36 1.36 1.39 1.44 1.40 1.44 1.36
0.28 0.31 0.36 0.41 0.47 0.51 0.51 0.49 0.52 0.53 0.52 0.55 0.56 0.61 0.70 0.69 0.68 0.69 0.68 0.67 0.72 0.77 0.78 0.79 0.80 0.79 0.79 0.79 0.93 1.29 1.51 1.43 1.21 1.15 1.05 1.13 1.30 1.36 1.39 1.35 1.37 1.46 1.48
0.31 0.34 0.38 0.43 0.48 0.47 0.46 0.47 0.50 0.50 0.49 0.53 0.56 0.59 0.64 0.64 0.63 0.64 0.66 0.63 0.65 0.72 0.78 0.79 0.81 0.80 0.79 0.81 0.94 1.05 1.17 1.30 1.21 1.18 1.33 1.30 1.27 1.23 1.17 1.18 1.25 1.26 1.21
0.36 0.37 0.37 0.41 0.45 0.43 0.43 0.47 0.49 0.49 0.48 0.55 0.60 0.62 0.64 0.68 0.66 0.62 0.61 0.62 0.68 0.82 0.90 0.88 0.86 0.82 0.80 0.86 1.03 1.07 1.04 1.13 1.16 1.17 1.26 1.25 1.13 1.02 1.00 1.04 1.06 1.05 1.13
0.44 0.42 0.43 0.45 0.45 0.39 0.38 0.46 0.52 0.53 0.54 0.55 0.61 0.66 0.68 0.69 0.68 0.64 0.64 0.67 0.71 0.92 1.17 1.12 1.09 1.10 1.09 1.16 1.44 1.44 1.33 1.34 1.36 1.38 1.35 1.22 1.07 0.98 0.90 0.87 0.85 0.88 1.01
0.50 0.47 0.44 0.40 0.39 0.36 0.37 0.43 0.49 0.54 0.55 0.55 0.58 0.64 0.70 0.73 0.70 0.65 0.66 0.68 0.69 0.77 0.82 0.87 0.99 1.01 1.16 1.32 1.32 1.28 1.27 1.31 1.36 1.39 1.30 1.10 0.98 0.92 0.88 0.86 0.86 0.84 0.88